Location: Dehesa de la Cepeda
(40.6574°N, 4.3013°W)
Time: 19:02:12
(UTC+00:00)

Explorer 7 - Pass Details

Date: 15 August 2021
Orbit: 484 x 676 km, 50.3° (Epoch: 17 September)

Event Time Altitude Azimuth Distance (km) Brightness Sun altitude
Exits shadow 02:56:30 14° 325° (NW) 1,448 9.1 -24.6°
Maximum altitude 02:58:21 19° 1° (N) 1,230 9.1 -24.4°
Drops below altitude 10° 03:01:05 10° 47° (NE) 1,684 10.4 -24.1°
Sets 03:03:48 0° 66° (ENE) 2,587 11.4 -23.7°
